User: anonymous   Login
Location: Unspecified
(0.0000°N, 0.0000°E)
Time: 22:20:55
(UTC+00:00)
Language:

STARLINK-2725 - Orbit

View from above orbital plane
View from above orbital plane
View from above satellite
View from above satellite

Ground track
Ground track

The orbit is defined by the following mean orbital elements,

1 48681U          26145.51659102 +.00000000 +00000-0 +42351-4 0 00006
2 48681  53.1599  78.2925 0001528  91.9782 268.1395 15.31700015    03
Epoch (UTC): 25 May 2026 12:23:53
Eccentricity: 0.0001528
inclination: 53.1599°
perigee height: 470 km
apogee height: 472 km
right ascension of ascending node: 78.2925°
argument of perigee: 91.9782°
revolutions per day: 15.31700015
mean anomaly at epoch: 268.1395°

The dashed part of the orbit path shows where the satellite is in the earth's shadow,  

DLR